Location: Atlantic Beach
(40.5890°N, 73.7290°W)
Time: 12:35:42
(UTC+00:00)

Cosmos 2360 - Pass Details

Date: 29 October 2020
Orbit: 848 x 854 km, 70.8° (Epoch: 01 December)

Event Time Altitude Azimuth Distance (km) Brightness Sun altitude
Rises 22:56:17 0° 186° (S) 3,408 7.5 -12.3°
Reaches altitude 10° 22:58:48 10° 181° (S) 2,476 6.7 -12.7°
Maximum altitude 23:04:15 49° 107° (ESE) 1,087 4.4 -13.8°
Drops below altitude 10° 23:09:44 10° 34° (NE) 2,489 6.3 -14.8°
Enters shadow 23:10:44 - 32° (NNE) 2,859 6.6 -15.0°
